SWR123 RKSI-LSZH

Flight info

Callsign SWR123
Flight time N/A
Altitude 40000
Route NOPIK Y697 AGAVO A591 IKEKA W4 HCH W200 DOVIV W55 PAMRU W34 VYK B215 LEBOM W104 VEXEB W47 IDSOT W48 DKO W66 NUKTI B215 FKG A368 SARIN/K0900F400 N161 GASBI/N0491F400 N161 LEYLA N644 ADEKI DCT BADIR DCT LAGAS DCT NOLGA UN61 TBN UL851 OLUPO UM10 GOKPA UL746 ODERO DCT LUGEB DCT NERDI DCT MOPUG DCT GOTAR DCT ERKIR DCT KPT L856 NEGRA
Aircraft A359/H-SDE2E3GHIJ3J4J5LM1ORWXY/LB1D1

Departure

Time N/A
Airport Incheon International Airport (RKSI)

Arrival

Time 2026-04-30 08:33
Airport Zürich Airport (LSZH)
Time Latitude Longitude Altitude Speed Heading
2026-04-30 07:10 45.76391 22.15902 38260 ft 462 kts 291°
2026-04-30 07:10 45.77601 22.11630 38256 ft 462 kts 291°
2026-04-30 07:10 45.80011 22.03097 38256 ft 463 kts 290°
2026-04-30 07:11 45.82346 21.94550 38259 ft 463 kts 288°
2026-04-30 07:11 45.84441 21.85719 38179 ft 465 kts 282°
2026-04-30 07:12 45.85440 21.76607 38155 ft 468 kts 284°
2026-04-30 07:12 45.86646 21.72226 38433 ft 466 kts 298°
2026-04-30 07:12 45.88280 21.68314 38801 ft 464 kts 301°
2026-04-30 07:13 45.89975 21.64362 39022 ft 464 kts 299°
2026-04-30 07:13 45.91540 21.60296 39198 ft 464 kts 296°
2026-04-30 07:13 45.92942 21.56129 39379 ft 465 kts 293°
2026-04-30 07:13 45.94232 21.51864 39561 ft 464 kts 291°
2026-04-30 07:14 45.95446 21.47565 39731 ft 465 kts 291°
2026-04-30 07:14 45.96631 21.43229 39886 ft 465 kts 291°
2026-04-30 07:14 45.97809 21.38897 40069 ft 465 kts 291°
2026-04-30 07:14 45.98987 21.34566 40220 ft 466 kts 291°
2026-04-30 07:15 46.01363 21.25874 40312 ft 466 kts 291°
2026-04-30 07:15 46.03739 21.17189 40314 ft 466 kts 291°
2026-04-30 07:16 46.06100 21.08494 40313 ft 466 kts 291°
2026-04-30 07:16 46.08424 20.99831 40313 ft 467 kts 291°
2026-04-30 07:17 46.10766 20.91106 40309 ft 467 kts 290°
2026-04-30 07:18 46.14263 20.77994 40311 ft 467 kts 290°
2026-04-30 07:18 46.16586 20.69240 40320 ft 467 kts 290°
2026-04-30 07:19 46.18565 20.60310 40322 ft 467 kts 286°
2026-04-30 07:19 46.19750 20.54318 40329 ft 468 kts 286°
2026-04-30 07:20 46.21028 20.47791 40332 ft 468 kts 285°
2026-04-30 07:21 46.22820 20.38745 40337 ft 469 kts 287°
2026-04-30 07:21 46.24668 20.29704 40342 ft 469 kts 287°
2026-04-30 07:22 46.27444 20.16151 40347 ft 469 kts 287°
2026-04-30 07:22 46.29279 20.07107 40348 ft 469 kts 287°
2026-04-30 07:23 46.31102 19.98065 40350 ft 469 kts 287°
2026-04-30 07:23 46.32917 19.89021 40353 ft 469 kts 287°
2026-04-30 07:24 46.34581 19.80701 40355 ft 468 kts 287°
2026-04-30 07:24 46.36381 19.71654 40354 ft 468 kts 287°
2026-04-30 07:25 46.38166 19.62642 40361 ft 468 kts 287°
2026-04-30 07:25 46.39962 19.53539 40359 ft 467 kts 287°
2026-04-30 07:26 46.41738 19.44489 40362 ft 467 kts 287°
2026-04-30 07:26 46.43493 19.35506 40365 ft 466 kts 287°
2026-04-30 07:27 46.45258 19.26428 40364 ft 466 kts 287°
2026-04-30 07:27 46.47002 19.17416 40374 ft 465 kts 287°
2026-04-30 07:28 46.48744 19.08373 40371 ft 465 kts 287°
2026-04-30 07:28 46.50471 18.99364 40375 ft 464 kts 286°
2026-04-30 07:29 46.52194 18.90331 40372 ft 464 kts 286°
2026-04-30 07:29 46.53913 18.81288 40377 ft 464 kts 286°
2026-04-30 07:30 46.56083 18.69797 40382 ft 463 kts 286°
2026-04-30 07:31 46.57728 18.61048 40378 ft 463 kts 286°
2026-04-30 07:31 46.59430 18.52003 40377 ft 463 kts 286°
2026-04-30 07:32 46.61118 18.42961 40384 ft 463 kts 286°
2026-04-30 07:32 46.62792 18.33929 40382 ft 463 kts 286°
2026-04-30 07:33 46.64440 18.24986 40381 ft 463 kts 286°
2026-04-30 07:33 46.66090 18.15985 40384 ft 463 kts 285°
2026-04-30 07:34 46.67744 18.06926 40383 ft 463 kts 286°
2026-04-30 07:34 46.69407 17.97824 40387 ft 463 kts 285°
2026-04-30 07:35 46.71042 17.88809 40389 ft 463 kts 285°
2026-04-30 07:35 46.72677 17.79717 40388 ft 464 kts 285°
2026-04-30 07:36 46.74304 17.70622 40389 ft 464 kts 285°
2026-04-30 07:36 46.75924 17.61518 40396 ft 465 kts 285°
2026-04-30 07:37 46.77528 17.52408 40408 ft 465 kts 285°
2026-04-30 07:37 46.79140 17.43220 40415 ft 466 kts 285°
2026-04-30 07:38 46.80483 17.35550 40418 ft 467 kts 285°
2026-04-30 07:38 46.82080 17.26401 40428 ft 467 kts 285°
2026-04-30 07:39 46.83681 17.17173 40429 ft 469 kts 284°
2026-04-30 07:39 46.85267 17.07933 40424 ft 469 kts 284°
2026-04-30 07:40 46.86851 16.98670 40422 ft 470 kts 284°
2026-04-30 07:40 46.88439 16.89373 40423 ft 471 kts 284°
2026-04-30 07:41 46.90011 16.80127 40418 ft 472 kts 284°
2026-04-30 07:41 46.91590 16.70788 40419 ft 474 kts 284°
2026-04-30 07:42 46.93165 16.61422 40419 ft 475 kts 284°
2026-04-30 07:42 46.94735 16.52027 40420 ft 476 kts 284°
2026-04-30 07:43 46.96302 16.42608 40416 ft 477 kts 284°
2026-04-30 07:43 46.97866 16.33152 40419 ft 478 kts 284°
2026-04-30 07:44 46.99417 16.23672 40414 ft 479 kts 284°
2026-04-30 07:44 47.00903 16.14148 40419 ft 480 kts 283°
2026-04-30 07:45 47.02272 16.04570 40416 ft 480 kts 283°
2026-04-30 07:45 47.03639 15.94978 40417 ft 481 kts 283°
2026-04-30 07:46 47.05011 15.85439 40416 ft 482 kts 283°
2026-04-30 07:46 47.06396 15.75808 40421 ft 482 kts 283°
2026-04-30 07:47 47.07774 15.66184 40423 ft 482 kts 283°
2026-04-30 07:47 47.09145 15.56539 40425 ft 483 kts 283°
2026-04-30 07:48 47.10501 15.46929 40426 ft 483 kts 283°
2026-04-30 07:48 47.11865 15.37204 40426 ft 484 kts 283°
2026-04-30 07:49 47.13207 15.27567 40418 ft 485 kts 283°
2026-04-30 07:49 47.14553 15.17853 40410 ft 485 kts 283°
2026-04-30 07:50 47.15889 15.08139 40393 ft 485 kts 283°
2026-04-30 07:50 47.17218 14.98418 40397 ft 485 kts 283°
2026-04-30 07:51 47.18535 14.88698 40407 ft 485 kts 282°
2026-04-30 07:51 47.19849 14.78942 40392 ft 485 kts 282°
2026-04-30 07:52 47.21144 14.69269 40401 ft 485 kts 282°
2026-04-30 07:52 47.22440 14.59519 40398 ft 485 kts 282°
2026-04-30 07:53 47.23724 14.49788 40392 ft 485 kts 282°
2026-04-30 07:53 47.25005 14.40017 40386 ft 486 kts 282°
2026-04-30 07:54 47.26267 14.30326 40379 ft 485 kts 282°
2026-04-30 07:54 47.27516 14.20661 40372 ft 485 kts 282°
2026-04-30 07:55 47.28768 14.10914 40370 ft 485 kts 282°
2026-04-30 07:55 47.30014 14.01137 40363 ft 485 kts 282°
2026-04-30 07:56 47.31251 13.91361 40356 ft 485 kts 282°
2026-04-30 07:56 47.32477 13.81610 40346 ft 484 kts 282°
2026-04-30 07:57 47.33698 13.71835 40348 ft 485 kts 282°
2026-04-30 07:57 47.34908 13.62059 40333 ft 484 kts 282°
2026-04-30 07:58 47.36111 13.52262 40333 ft 484 kts 282°
2026-04-30 07:58 47.37295 13.42552 40331 ft 484 kts 282°
2026-04-30 07:59 47.38475 13.32822 40324 ft 484 kts 282°
2026-04-30 07:59 47.39655 13.23008 40326 ft 484 kts 282°
2026-04-30 08:00 47.41397 13.08374 40316 ft 484 kts 282°
2026-04-30 08:00 47.42546 12.98632 40311 ft 484 kts 282°
2026-04-30 08:01 47.43688 12.88875 40314 ft 484 kts 282°
2026-04-30 08:01 47.44829 12.79059 40316 ft 484 kts 282°
2026-04-30 08:02 47.46520 12.64372 40324 ft 484 kts 282°
2026-04-30 08:03 47.48750 12.44714 40328 ft 484 kts 281°
2026-04-30 08:04 47.49850 12.34902 40334 ft 484 kts 281°
2026-04-30 08:04 47.50944 12.25067 40338 ft 484 kts 281°
2026-04-30 08:05 47.52029 12.15223 40338 ft 484 kts 281°
2026-04-30 08:05 47.53105 12.05388 40342 ft 485 kts 281°
2026-04-30 08:06 47.54214 11.95528 40343 ft 485 kts 283°
2026-04-30 08:06 47.55516 11.85810 40341 ft 484 kts 283°
2026-04-30 08:07 47.56851 11.76051 40335 ft 484 kts 283°
2026-04-30 08:07 47.58146 11.66269 40338 ft 484 kts 283°
2026-04-30 08:08 47.59415 11.56480 40336 ft 484 kts 283°
2026-04-30 08:08 47.60673 11.46664 40322 ft 484 kts 283°
2026-04-30 08:09 47.61923 11.36861 40322 ft 484 kts 283°
2026-04-30 08:09 47.63160 11.27109 40320 ft 484 kts 282°
2026-04-30 08:10 47.64397 11.17266 40027 ft 485 kts 282°
2026-04-30 08:10 47.64959 11.12770 39818 ft 485 kts 282°
2026-04-30 08:10 47.65564 11.07918 39590 ft 485 kts 282°
2026-04-30 08:10 47.66177 11.02976 39362 ft 486 kts 282°
2026-04-30 08:11 47.66784 10.98059 39116 ft 486 kts 282°
2026-04-30 08:11 47.67389 10.93132 38570 ft 483 kts 282°
2026-04-30 08:11 47.67987 10.88240 37932 ft 481 kts 283°
2026-04-30 08:11 47.68585 10.83336 37267 ft 480 kts 283°
2026-04-30 08:12 47.69177 10.78470 36596 ft 480 kts 283°
2026-04-30 08:12 47.69624 10.73622 36374 ft 475 kts 277°
2026-04-30 08:12 47.69789 10.68624 36040 ft 486 kts 275°
2026-04-30 08:12 47.69906 10.63528 35843 ft 499 kts 274°
2026-04-30 08:13 47.70019 10.58388 35495 ft 499 kts 274°
2026-04-30 08:13 47.70132 10.53205 34571 ft 504 kts 275°
2026-04-30 08:13 47.70249 10.47938 33383 ft 513 kts 275°
2026-04-30 08:13 47.70367 10.42626 32333 ft 518 kts 275°
2026-04-30 08:14 47.70485 10.37267 31331 ft 522 kts 275°
2026-04-30 08:14 47.70599 10.31945 30327 ft 527 kts 275°
2026-04-30 08:14 47.70716 10.26470 29199 ft 531 kts 274°
2026-04-30 08:14 47.70830 10.21007 28464 ft 526 kts 274°
2026-04-30 08:15 47.70937 10.15626 27732 ft 522 kts 274°
2026-04-30 08:15 47.71042 10.10246 26984 ft 518 kts 274°
2026-04-30 08:15 47.71144 10.04917 26234 ft 515 kts 274°
2026-04-30 08:15 47.71244 9.99585 25562 ft 510 kts 274°
2026-04-30 08:16 47.71339 9.94367 24931 ft 504 kts 274°
2026-04-30 08:16 47.71430 9.89169 24288 ft 500 kts 274°
2026-04-30 08:16 47.71517 9.84055 23637 ft 495 kts 274°
2026-04-30 08:16 47.71602 9.79020 22895 ft 490 kts 274°
2026-04-30 08:17 47.71685 9.73928 22204 ft 484 kts 274°
2026-04-30 08:17 47.71763 9.68968 21524 ft 478 kts 274°
2026-04-30 08:17 47.71838 9.64045 20832 ft 473 kts 274°
2026-04-30 08:17 47.71909 9.59308 20200 ft 467 kts 274°
2026-04-30 08:18 47.71980 9.54476 19542 ft 462 kts 274°
2026-04-30 08:18 47.72046 9.49757 18920 ft 457 kts 273°
2026-04-30 08:18 47.71909 9.45074 18444 ft 451 kts 262°
2026-04-30 08:18 47.70915 9.40741 18251 ft 442 kts 242°
2026-04-30 08:19 47.69131 9.37024 18254 ft 443 kts 230°
2026-04-30 08:19 47.67138 9.33502 18261 ft 446 kts 230°
2026-04-30 08:19 47.65162 9.29988 18253 ft 447 kts 230°
2026-04-30 08:19 47.63181 9.26429 18273 ft 447 kts 230°
2026-04-30 08:20 47.61198 9.22851 18255 ft 447 kts 231°
2026-04-30 08:20 47.59445 9.19091 17975 ft 437 kts 244°
2026-04-30 08:20 47.58447 9.14930 17539 ft 433 kts 259°
2026-04-30 08:20 47.57937 9.10539 16962 ft 418 kts 262°
2026-04-30 08:21 47.57533 9.06456 16391 ft 391 kts 264°
2026-04-30 08:21 47.57406 9.02550 15795 ft 368 kts 273°
2026-04-30 08:21 47.57632 8.98878 15183 ft 351 kts 279°
2026-04-30 08:21 47.57948 8.95360 14578 ft 338 kts 278°
2026-04-30 08:22 47.58248 8.91951 13971 ft 327 kts 278°
2026-04-30 08:22 47.58531 8.88665 13308 ft 320 kts 278°
2026-04-30 08:22 47.58807 8.85407 12710 ft 319 kts 278°
2026-04-30 08:22 47.59116 8.82139 12179 ft 321 kts 282°
2026-04-30 08:23 47.59656 8.78994 11698 ft 321 kts 288°
2026-04-30 08:23 47.60383 8.75825 11191 ft 316 kts 291°
2026-04-30 08:23 47.61167 8.72837 10726 ft 301 kts 293°
2026-04-30 08:23 47.61942 8.70012 10470 ft 296 kts 293°
2026-04-30 08:24 47.62719 8.67197 10234 ft 291 kts 293°
2026-04-30 08:24 47.63450 8.64449 9987 ft 290 kts 292°
2026-04-30 08:24 47.64181 8.61623 9716 ft 290 kts 291°
2026-04-30 08:24 47.64882 8.58890 9371 ft 283 kts 291°
2026-04-30 08:25 47.65568 8.56210 8912 ft 274 kts 291°
2026-04-30 08:25 47.66246 8.53591 8435 ft 265 kts 292°
2026-04-30 08:25 47.66892 8.51102 7982 ft 258 kts 291°
2026-04-30 08:25 47.67511 8.48661 7525 ft 252 kts 291°
2026-04-30 08:26 47.68116 8.46243 7090 ft 247 kts 291°
2026-04-30 08:26 47.68517 8.44640 6813 ft 251 kts 291°
2026-04-30 08:26 47.69160 8.41254 6185 ft 257 kts 268°
2026-04-30 08:26 47.68633 8.38845 5835 ft 242 kts 227°
2026-04-30 08:27 47.67825 8.37745 5696 ft 236 kts 210°
2026-04-30 08:27 47.66116 8.35754 5381 ft 234 kts 223°
2026-04-30 08:27 47.65407 8.34594 5226 ft 229 kts 223°
2026-04-30 08:27 47.64131 8.33270 5017 ft 212 kts 187°
2026-04-30 08:28 47.62821 8.33497 5015 ft 180 kts 142°
2026-04-30 08:28 47.61907 8.34695 5012 ft 175 kts 128°
2026-04-30 08:28 47.61053 8.35995 4990 ft 175 kts 130°
2026-04-30 08:28 47.60170 8.37213 4789 ft 171 kts 132°
2026-04-30 08:29 47.59306 8.38386 4552 ft 166 kts 130°
2026-04-30 08:29 47.58474 8.39537 4315 ft 160 kts 130°
2026-04-30 08:29 47.57668 8.40647 4099 ft 159 kts 130°
2026-04-30 08:29 47.56861 8.41750 3886 ft 156 kts 129°
2026-04-30 08:30 47.56076 8.42835 3685 ft 158 kts 129°
2026-04-30 08:30 47.55259 8.43956 3469 ft 161 kts 129°
2026-04-30 08:30 47.54443 8.45073 3236 ft 159 kts 129°
2026-04-30 08:30 47.53673 8.46134 3020 ft 156 kts 130°
2026-04-30 08:31 47.52860 8.47244 2826 ft 154 kts 128°
2026-04-30 08:31 47.52089 8.48302 2580 ft 147 kts 124°
2026-04-30 08:31 47.51411 8.49340 2289 ft 139 kts 126°
2026-04-30 08:31 47.50681 8.50303 2169 ft 141 kts 129°
2026-04-30 08:32 47.50005 8.51205 2023 ft 151 kts 130°
2026-04-30 08:32 47.49203 8.52235 1738 ft 150 kts 133°
2026-04-30 08:32 47.48459 8.53248 1509 ft 143 kts 129°
2026-04-30 08:32 47.47788 8.54228 1407 ft 118 kts 137°
2026-04-30 08:33 47.47288 8.54908 1410 ft 84 kts 139°
2026-04-30 08:33 47.46940 8.55365 1412 ft 50 kts 137°
2026-04-30 08:33 47.46770 8.55586 1414 ft 16 kts 151°
2026-04-30 08:33 47.46699 8.55636 1410 ft 13 kts 159°